Tracking 29892 objects as of 21-Nov-2024
HD Live streaming from Space Station
objects crossing your sky now

HJS-4B

Track HJS-4B now!
10-day predictions


NORAD ID: 58692
Int'l Code: 2023-212B
Perigee: 1,110.8 km
Apogee: 1,111.5 km
Inclination: 50.0 °
Period: 107.4 minutes
Semi major axis: 7482 km
RCS: Unknown
Launch date: December 30, 2023
Source: People's Republic of China (PRC)
Launch site: Jiuquan Satellite Launch Center, China (JSC)
Your satellite tracking list
Your tracking list is empty




NASA's NSSDC Master Catalog

Two Line Element Set (TLE):
1 58692U 23212B   24326.09053796 -.00000052  00000-0  13596-3 0  9991
2 58692  49.9975 283.7756 0000471 183.3487 176.7388 13.41405050 44325
Source of the keplerian elements: AFSPC